FCN587 SAME-MNMG

Flight info

Callsign FCN587
Flight time N/A
Altitude 36000
Route UMKAL2C UMKAL UL405 DONTI UL780 LIVOR/N0492F380 UL780 GYV/N0486F400 UM659 PARRI UB767 TIO/N0489F390 UA502 ULAPO LISPA1B
Aircraft A35K/H-SDE2E3GHIJ3J4J5LM1ORWXY/LB1D1

Departure

Time 2026-04-23 21:52
Airport Governor Francisco Gabrielli International Airport (SAME)

Arrival

Time N/A
Airport Augusto C. Sandino (Managua) International Airport (MNMG)
Time Latitude Longitude Altitude Speed Heading
2026-04-23 21:38 -32.82802 -68.79759 2317 ft 0 kts 269°
2026-04-23 21:41 -32.82802 -68.79756 2317 ft 2 kts 268°
2026-04-23 21:42 -32.82800 -68.79735 2321 ft 3 kts 245°
2026-04-23 21:42 -32.82790 -68.79718 2325 ft 3 kts 208°
2026-04-23 21:42 -32.82771 -68.79710 2320 ft 3 kts 185°
2026-04-23 21:42 -32.82751 -68.79709 2319 ft 3 kts 179°
2026-04-23 21:43 -32.82731 -68.79709 2318 ft 3 kts 182°
2026-04-23 21:43 -32.82711 -68.79709 2322 ft 3 kts 181°
2026-04-23 21:43 -32.82698 -68.79708 2320 ft 0 kts 181°
2026-04-23 21:45 -32.82699 -68.79708 2320 ft 1 kts 181°
2026-04-23 21:45 -32.82711 -68.79709 2322 ft 2 kts 181°
2026-04-23 21:46 -32.82732 -68.79709 2318 ft 4 kts 181°
2026-04-23 21:46 -32.82763 -68.79710 2320 ft 5 kts 181°
2026-04-23 21:46 -32.82804 -68.79712 2318 ft 7 kts 181°
2026-04-23 21:46 -32.82854 -68.79712 2322 ft 8 kts 181°
2026-04-23 21:47 -32.82906 -68.79700 2321 ft 8 kts 144°
2026-04-23 21:47 -32.82933 -68.79644 2325 ft 8 kts 115°
2026-04-23 21:47 -32.82971 -68.79585 2326 ft 10 kts 135°
2026-04-23 21:47 -32.83025 -68.79532 2325 ft 10 kts 153°
2026-04-23 21:48 -32.83098 -68.79515 2322 ft 11 kts 176°
2026-04-23 21:48 -32.83180 -68.79515 2322 ft 12 kts 180°
2026-04-23 21:48 -32.83270 -68.79516 2328 ft 13 kts 180°
2026-04-23 21:48 -32.83365 -68.79517 2326 ft 14 kts 180°
2026-04-23 21:49 -32.83465 -68.79517 2325 ft 15 kts 180°
2026-04-23 21:49 -32.83571 -68.79519 2331 ft 16 kts 180°
2026-04-23 21:49 -32.83645 -68.79520 2329 ft 16 kts 180°
2026-04-23 21:49 -32.83760 -68.79522 2325 ft 17 kts 181°
2026-04-23 21:50 -32.83878 -68.79524 2326 ft 17 kts 181°
2026-04-23 21:50 -32.84000 -68.79525 2327 ft 18 kts 174°
2026-04-23 21:50 -32.84116 -68.79472 2328 ft 18 kts 161°
2026-04-23 21:50 -32.84234 -68.79422 2332 ft 18 kts 153°
2026-04-23 21:51 -32.84322 -68.79347 2336 ft 9 kts 111°
2026-04-23 21:51 -32.84293 -68.79312 2333 ft 6 kts 21°
2026-04-23 21:51 -32.84261 -68.79308 2334 ft 0 kts
2026-04-23 21:52 -32.84090 -68.79301 2332 ft 65 kts
2026-04-23 21:52 -32.83337 -68.79289 2323 ft 148 kts
2026-04-23 21:52 -32.82097 -68.79264 2591 ft 196 kts
2026-04-23 21:52 -32.80686 -68.79215 3514 ft 206 kts
2026-04-23 21:53 -32.79146 -68.79174 4142 ft 239 kts
2026-04-23 21:53 -32.77490 -68.78792 5044 ft 244 kts 23°
2026-04-23 21:53 -32.76100 -68.77569 5229 ft 266 kts 53°
2026-04-23 21:53 -32.75366 -68.75498 5484 ft 282 kts 83°
2026-04-23 21:54 -32.75349 -68.73190 6277 ft 276 kts 90°
2026-04-23 21:54 -32.75185 -68.70928 7008 ft 276 kts 80°
2026-04-23 21:54 -32.74761 -68.68692 7562 ft 280 kts 75°
2026-04-23 21:54 -32.74232 -68.66446 8144 ft 284 kts 73°
2026-04-23 21:55 -32.73646 -68.64175 8712 ft 288 kts 71°
2026-04-23 21:55 -32.72743 -68.62041 9301 ft 292 kts 54°
2026-04-23 21:55 -32.71276 -68.60380 9855 ft 294 kts 30°
2026-04-23 21:55 -32.69338 -68.59619 10292 ft 300 kts
2026-04-23 21:56 -32.67266 -68.60034 10496 ft 311 kts 334°
2026-04-23 21:56 -32.65554 -68.61645 10721 ft 323 kts 306°
2026-04-23 21:56 -32.64626 -68.64092 10927 ft 334 kts 280°
2026-04-23 21:56 -32.64686 -68.66877 11157 ft 346 kts 257°
2026-04-23 21:57 -32.65311 -68.69643 11408 ft 357 kts 254°
2026-04-23 21:57 -32.65984 -68.72568 11643 ft 368 kts 256°
2026-04-23 21:57 -32.66604 -68.75540 11985 ft 374 kts 257°
2026-04-23 21:57 -32.67185 -68.78519 12437 ft 377 kts 257°
2026-04-23 21:58 -32.67754 -68.81560 12916 ft 378 kts 258°
2026-04-23 21:58 -32.68315 -68.84622 13399 ft 380 kts 258°
2026-04-23 21:58 -32.68871 -68.87699 13894 ft 382 kts 258°
2026-04-23 21:58 -32.69424 -68.90782 14316 ft 383 kts 258°
2026-04-23 21:59 -32.69978 -68.93889 14740 ft 386 kts 258°
2026-04-23 21:59 -32.70533 -68.97014 15168 ft 387 kts 259°
2026-04-23 21:59 -32.71091 -69.00158 15574 ft 389 kts 259°
2026-04-23 22:00 -32.72208 -69.06470 16439 ft 392 kts 259°
2026-04-23 22:00 -32.72768 -69.09645 16879 ft 394 kts 259°
2026-04-23 22:00 -32.73331 -69.12845 17321 ft 395 kts 259°
2026-04-23 22:00 -32.73895 -69.16048 17742 ft 398 kts 259°
2026-04-23 22:01 -32.74462 -69.19280 18139 ft 400 kts 259°
2026-04-23 22:01 -32.75029 -69.22507 18662 ft 398 kts 259°
2026-04-23 22:01 -32.75584 -69.25682 19118 ft 398 kts 259°
2026-04-23 22:01 -32.76149 -69.28922 19460 ft 402 kts 259°
2026-04-23 22:02 -32.76715 -69.32178 19803 ft 404 kts 259°
2026-04-23 22:02 -32.77286 -69.35457 20129 ft 406 kts 259°
2026-04-23 22:02 -32.77858 -69.38760 20437 ft 409 kts 259°
2026-04-23 22:02 -32.78436 -69.42078 20729 ft 411 kts 260°
2026-04-23 22:03 -32.79014 -69.45416 21110 ft 413 kts 259°
2026-04-23 22:03 -32.79595 -69.48764 21437 ft 414 kts 259°
2026-04-23 22:03 -32.80176 -69.52124 21813 ft 416 kts 260°
2026-04-23 22:03 -32.80754 -69.55487 22306 ft 412 kts 259°
2026-04-23 22:04 -32.81323 -69.58825 22651 ft 414 kts 260°
2026-04-23 22:04 -32.81898 -69.62159 22873 ft 418 kts 259°
2026-04-23 22:04 -32.82492 -69.65598 23231 ft 420 kts 259°
2026-04-23 22:04 -32.83073 -69.68974 23596 ft 423 kts 259°
2026-04-23 22:05 -32.83666 -69.72450 23901 ft 425 kts 259°
2026-04-23 22:05 -32.84246 -69.75855 24157 ft 426 kts 260°
2026-04-23 22:05 -32.84834 -69.79318 24407 ft 428 kts 260°
2026-04-23 22:05 -32.85426 -69.82799 24721 ft 430 kts 260°
2026-04-23 22:06 -32.86021 -69.86296 25003 ft 431 kts 260°
2026-04-23 22:06 -32.86614 -69.89785 25442 ft 429 kts 260°
2026-04-23 22:06 -32.87206 -69.93269 25779 ft 430 kts 260°
2026-04-23 22:06 -32.87793 -69.96756 26064 ft 431 kts 260°
2026-04-23 22:07 -32.88291 -70.00279 26348 ft 432 kts 265°
2026-04-23 22:07 -32.88568 -70.03850 26643 ft 434 kts 266°
2026-04-23 22:07 -32.88758 -70.07441 26975 ft 436 kts 268°
2026-04-23 22:07 -32.88909 -70.11049 27286 ft 437 kts 268°
2026-04-23 22:08 -32.89044 -70.14657 27621 ft 438 kts 268°
2026-04-23 22:08 -32.89180 -70.18284 27999 ft 439 kts 268°
2026-04-23 22:08 -32.89322 -70.21935 28323 ft 442 kts 268°
2026-04-23 22:08 -32.89472 -70.25582 28667 ft 443 kts 268°
2026-04-23 22:09 -32.89628 -70.29255 29017 ft 444 kts 268°
2026-04-23 22:09 -32.89786 -70.32936 29324 ft 446 kts 268°
2026-04-23 22:09 -32.89945 -70.36594 29897 ft 441 kts 268°
2026-04-23 22:09 -32.90102 -70.40213 30137 ft 445 kts 268°
2026-04-23 22:10 -32.90257 -70.43905 30273 ft 449 kts 268°
2026-04-23 22:10 -32.90412 -70.47640 30369 ft 454 kts 268°
2026-04-23 22:10 -32.90566 -70.51409 30507 ft 458 kts 268°
2026-04-23 22:10 -32.90721 -70.55218 30609 ft 463 kts 268°
2026-04-23 22:11 -32.91069 -70.62932 30769 ft 469 kts 268°
2026-04-23 22:11 -32.91440 -70.70709 30863 ft 472 kts 268°
2026-04-23 22:12 -32.91802 -70.78481 31574 ft 460 kts 268°
2026-04-23 22:12 -32.91975 -70.82222 32491 ft 447 kts 268°
2026-04-23 22:12 -32.92207 -70.85868 33223 ft 439 kts 266°
2026-04-23 22:13 -32.92505 -70.89471 33636 ft 438 kts 265°
2026-04-23 22:13 -32.92831 -70.93072 33916 ft 438 kts 265°
2026-04-23 22:13 -32.93161 -70.96683 34257 ft 437 kts 265°
2026-04-23 22:13 -32.93479 -71.00264 34601 ft 434 kts 265°
2026-04-23 22:14 -32.93784 -71.03836 34848 ft 434 kts 266°
2026-04-23 22:14 -32.93884 -71.07423 35114 ft 432 kts 273°
2026-04-23 22:14 -32.93603 -71.10975 35416 ft 430 kts 280°
2026-04-23 22:14 -32.92915 -71.14437 35651 ft 430 kts 287°
2026-04-23 22:15 -32.91809 -71.17738 35875 ft 431 kts 295°
2026-04-23 22:15 -32.90290 -71.20830 36063 ft 435 kts 302°
2026-04-23 22:15 -32.86092 -71.26122 36125 ft 447 kts 318°
2026-04-23 22:16 -32.80638 -71.29709 36122 ft 460 kts 334°
2026-04-23 22:16 -32.77525 -71.30742 36111 ft 471 kts 343°
2026-04-23 22:16 -32.74228 -71.31185 36126 ft 484 kts 352°
2026-04-23 22:17 -32.67487 -71.31709 36122 ft 482 kts 343°
2026-04-23 22:17 -32.61099 -71.33851 36121 ft 475 kts 335°
2026-04-23 22:18 -32.54882 -71.36489 36132 ft 474 kts 334°
2026-04-23 22:18 -32.48714 -71.39221 36129 ft 473 kts 334°
2026-04-23 22:19 -32.42535 -71.41944 36132 ft 474 kts 334°
2026-04-23 22:19 -32.36386 -71.44625 36129 ft 474 kts 334°
2026-04-23 22:20 -32.30188 -71.47315 36112 ft 474 kts 334°
2026-04-23 22:20 -32.24015 -71.49991 36129 ft 472 kts 334°
2026-04-23 22:21 -32.17855 -71.52660 36132 ft 472 kts 334°
2026-04-23 22:21 -32.11684 -71.55325 36135 ft 472 kts 334°
2026-04-23 22:22 -32.05511 -71.57989 36134 ft 473 kts 334°
2026-04-23 22:22 -31.99342 -71.60646 36134 ft 471 kts 334°
2026-04-23 22:23 -31.93182 -71.63297 36136 ft 471 kts 334°
2026-04-23 22:23 -31.87067 -71.65926 36134 ft 471 kts 334°
2026-04-23 22:24 -31.80907 -71.68570 36138 ft 471 kts 334°
2026-04-23 22:24 -31.74773 -71.71198 36138 ft 468 kts 334°
2026-04-23 22:25 -31.68650 -71.73818 36137 ft 468 kts 334°
2026-04-23 22:25 -31.62535 -71.76438 36137 ft 468 kts 334°
2026-04-23 22:26 -31.56421 -71.79042 36135 ft 468 kts 334°
2026-04-23 22:26 -31.50319 -71.81635 36132 ft 465 kts 333°
2026-04-23 22:27 -31.44243 -71.84216 36144 ft 464 kts 333°
2026-04-23 22:27 -31.38159 -71.86800 36124 ft 464 kts 333°
2026-04-23 22:28 -31.32083 -71.89377 36144 ft 464 kts 333°
2026-04-23 22:28 -31.26018 -71.91942 36132 ft 463 kts 333°
2026-04-23 22:29 -31.19986 -71.94496 36120 ft 464 kts 333°
2026-04-23 22:29 -31.13898 -71.97067 36128 ft 465 kts 333°
2026-04-23 22:30 -31.07818 -71.99630 36137 ft 464 kts 333°
2026-04-23 22:30 -31.01746 -72.02184 36130 ft 462 kts 333°
2026-04-23 22:31 -30.95712 -72.04720 36127 ft 461 kts 333°
2026-04-23 22:31 -30.89678 -72.07256 36125 ft 461 kts 333°
2026-04-23 22:32 -30.83687 -72.09770 36124 ft 460 kts 333°
2026-04-23 22:32 -30.77665 -72.12289 36133 ft 459 kts 332°
2026-04-23 22:33 -30.71660 -72.14799 36124 ft 458 kts 332°
2026-04-23 22:33 -30.65657 -72.17310 36121 ft 458 kts 332°
2026-04-23 22:34 -30.59666 -72.19816 36116 ft 458 kts 332°
2026-04-23 22:34 -30.53675 -72.22310 36101 ft 457 kts 331°
2026-04-23 22:35 -30.47698 -72.24795 36120 ft 455 kts 331°
2026-04-23 22:35 -30.41725 -72.27280 36125 ft 457 kts 332°
2026-04-23 22:36 -30.35729 -72.29772 36124 ft 458 kts 332°
2026-04-23 22:36 -30.29722 -72.32262 36076 ft 458 kts 331°
2026-04-23 22:37 -30.23738 -72.34735 36121 ft 456 kts 331°
2026-04-23 22:37 -30.17769 -72.37203 36121 ft 455 kts 331°
2026-04-23 22:38 -30.11805 -72.39668 36124 ft 455 kts 331°
2026-04-23 22:38 -30.05886 -72.42111 36124 ft 455 kts 331°
2026-04-23 22:39 -29.99920 -72.44569 36124 ft 455 kts 331°
2026-04-23 22:39 -29.93951 -72.47025 36121 ft 455 kts 331°
2026-04-23 22:40 -29.88991 -72.49063 36124 ft 455 kts 331°
2026-04-23 22:41 -29.80034 -72.52739 36121 ft 455 kts 331°
2026-04-23 22:41 -29.74084 -72.55169 36135 ft 451 kts 330°
2026-04-23 22:42 -29.68181 -72.57583 36127 ft 449 kts 330°
2026-04-23 22:42 -29.62292 -72.59997 36126 ft 449 kts 330°
2026-04-23 22:43 -29.56390 -72.62410 36128 ft 451 kts 330°
2026-04-23 22:43 -29.50473 -72.64821 36110 ft 450 kts 329°
2026-04-23 22:44 -29.44586 -72.67212 36126 ft 448 kts 329°
2026-04-23 22:44 -29.38717 -72.69599 36127 ft 447 kts 329°
2026-04-23 22:45 -29.32896 -72.71965 36126 ft 447 kts 329°
2026-04-23 22:45 -29.27031 -72.74346 36127 ft 447 kts 329°
2026-04-23 22:46 -29.21184 -72.76711 36133 ft 444 kts 329°
2026-04-23 22:46 -29.15372 -72.79061 36127 ft 442 kts 329°
2026-04-23 22:47 -29.09567 -72.81409 36141 ft 442 kts 329°
2026-04-23 22:47 -29.03770 -72.83752 36141 ft 442 kts 329°
2026-04-23 22:48 -28.97976 -72.86089 36105 ft 441 kts 329°
2026-04-23 22:48 -28.92194 -72.88415 36126 ft 439 kts 329°
2026-04-23 22:49 -28.86432 -72.90733 36124 ft 439 kts 329°
2026-04-23 22:49 -28.80670 -72.93050 36125 ft 439 kts 329°
2026-04-23 22:50 -28.74908 -72.95363 36139 ft 439 kts 329°
2026-04-23 22:50 -28.69177 -72.97661 36128 ft 439 kts 329°
2026-04-23 22:51 -28.63427 -72.99962 36127 ft 438 kts 329°
2026-04-23 22:51 -28.57678 -73.02261 36127 ft 438 kts 329°
2026-04-23 22:52 -28.51928 -73.04559 36128 ft 438 kts 329°
2026-04-23 22:52 -28.46179 -73.06858 36082 ft 438 kts 329°
2026-04-23 22:53 -28.40429 -73.09149 36130 ft 437 kts 329°
2026-04-23 22:53 -28.34681 -73.11433 36127 ft 437 kts 329°
2026-04-23 22:54 -28.28942 -73.13714 36127 ft 437 kts 329°
2026-04-23 22:54 -28.23195 -73.15996 36130 ft 437 kts 329°
2026-04-23 22:55 -28.17493 -73.18260 36121 ft 437 kts 330°
2026-04-23 22:55 -28.11751 -73.20536 36130 ft 437 kts 330°
2026-04-23 22:56 -28.06000 -73.22812 36130 ft 438 kts 330°
2026-04-23 22:56 -28.00251 -73.25084 36129 ft 437 kts 330°
2026-04-23 22:57 -27.94499 -73.27355 36126 ft 437 kts 330°
2026-04-23 22:57 -27.88752 -73.29625 36116 ft 438 kts 330°
2026-04-23 22:58 -27.83004 -73.31889 36132 ft 437 kts 330°
2026-04-23 22:58 -27.77257 -73.34150 36129 ft 437 kts 330°
2026-04-23 22:59 -27.71417 -73.36221 36124 ft 441 kts 333°
2026-04-23 22:59 -27.65509 -73.38135 36129 ft 442 kts 333°
2026-04-23 23:00 -27.59609 -73.40068 36140 ft 441 kts 333°
2026-04-23 23:00 -27.53756 -73.42020 36138 ft 441 kts 333°
2026-04-23 23:01 -27.47878 -73.43994 36135 ft 441 kts 333°
2026-04-23 23:01 -27.41997 -73.45969 36133 ft 441 kts 333°
2026-04-23 23:02 -27.36109 -73.47941 36127 ft 441 kts 333°
2026-04-23 23:02 -27.30225 -73.49909 36123 ft 441 kts 333°
2026-04-23 23:03 -27.24335 -73.51877 36139 ft 441 kts 333°
2026-04-23 23:03 -27.18454 -73.53840 36140 ft 441 kts 333°
2026-04-23 23:04 -27.12565 -73.55803 36139 ft 441 kts 333°
2026-04-23 23:04 -27.06674 -73.57767 36125 ft 442 kts 333°
2026-04-23 23:05 -27.00771 -73.59732 36127 ft 443 kts 333°
2026-04-23 23:05 -26.94902 -73.61681 36126 ft 443 kts 333°
2026-04-23 23:06 -26.88953 -73.63654 36130 ft 443 kts 333°
2026-04-23 23:06 -26.83072 -73.65604 36141 ft 443 kts 333°
2026-04-23 23:07 -26.77160 -73.67562 36127 ft 443 kts 334°
2026-04-23 23:07 -26.71244 -73.69520 36129 ft 444 kts 334°
2026-04-23 23:08 -26.65316 -73.71479 36129 ft 444 kts 334°
2026-04-23 23:08 -26.59389 -73.73434 36127 ft 444 kts 334°
2026-04-23 23:09 -26.53470 -73.75386 36129 ft 444 kts 334°
2026-04-23 23:09 -26.47531 -73.77345 36130 ft 445 kts 334°
2026-04-23 23:10 -26.41580 -73.79303 36132 ft 446 kts 334°
2026-04-23 23:10 -26.35666 -73.81246 36132 ft 446 kts 334°
2026-04-23 23:11 -26.29708 -73.83201 36132 ft 446 kts 334°
2026-04-23 23:11 -26.23754 -73.85155 36099 ft 446 kts 334°
2026-04-23 23:12 -26.17779 -73.87115 36129 ft 449 kts 334°
2026-04-23 23:12 -26.11774 -73.89080 36130 ft 449 kts 335°
2026-04-23 23:13 -26.05774 -73.91040 36129 ft 449 kts 335°
2026-04-23 23:13 -25.99806 -73.92988 36130 ft 449 kts 335°
2026-04-23 23:14 -25.93804 -73.94947 36122 ft 450 kts 335°
2026-04-23 23:14 -25.87782 -73.96911 36138 ft 451 kts 335°
2026-04-23 23:15 -25.81759 -73.98872 36134 ft 451 kts 335°
2026-04-23 23:15 -25.75734 -74.00830 36128 ft 451 kts 335°
2026-04-23 23:16 -25.69708 -74.02786 36126 ft 451 kts 335°
2026-04-23 23:16 -25.63687 -74.04743 36121 ft 452 kts 335°
2026-04-23 23:17 -25.57647 -74.06702 36121 ft 452 kts 335°
2026-04-23 23:17 -25.51640 -74.08646 36131 ft 452 kts 335°
2026-04-23 23:18 -25.45599 -74.10599 36127 ft 452 kts 335°
2026-04-23 23:18 -25.39555 -74.12551 36133 ft 452 kts 335°
2026-04-23 23:19 -25.33517 -74.14537 36114 ft 452 kts 335°
2026-04-23 23:19 -25.27513 -74.16610 36116 ft 452 kts 334°
2026-04-23 23:20 -25.21528 -74.18748 36125 ft 452 kts 334°
2026-04-23 23:20 -25.15559 -74.20928 36131 ft 451 kts 334°
2026-04-23 23:21 -25.09601 -74.23133 36119 ft 451 kts 333°
2026-04-23 23:21 -25.03675 -74.25333 36111 ft 453 kts 334°
2026-04-23 23:22 -24.97690 -74.27531 36113 ft 454 kts 334°
2026-04-23 23:22 -24.91688 -74.29720 36119 ft 454 kts 334°
2026-04-23 23:23 -24.85684 -74.31897 36124 ft 454 kts 334°
2026-04-23 23:23 -24.79676 -74.34070 36083 ft 455 kts 334°
2026-04-23 23:24 -24.73663 -74.36273 36101 ft 455 kts 334°
2026-04-23 23:24 -24.67655 -74.38509 36091 ft 455 kts 334°
2026-04-23 23:25 -24.61669 -74.40761 36086 ft 455 kts 334°
2026-04-23 23:25 -24.55681 -74.43029 36078 ft 455 kts 334°
2026-04-23 23:26 -24.49732 -74.45291 36067 ft 455 kts 334°
2026-04-23 23:26 -24.43753 -74.47572 36052 ft 455 kts 334°
2026-04-23 23:27 -24.37775 -74.49859 36048 ft 455 kts 334°
2026-04-23 23:27 -24.31797 -74.52150 36041 ft 455 kts 334°
2026-04-23 23:28 -24.25817 -74.54445 36022 ft 455 kts 334°
2026-04-23 23:28 -24.19842 -74.56741 35972 ft 456 kts 334°
2026-04-23 23:29 -24.13840 -74.59039 35962 ft 457 kts 334°
2026-04-23 23:29 -24.08839 -74.60941 35950 ft 458 kts 334°
2026-04-23 23:30 -24.01835 -74.63592 35912 ft 458 kts 334°
2026-04-23 23:30 -23.95793 -74.65868 35872 ft 459 kts 334°
2026-04-23 23:31 -23.90770 -74.67756 35817 ft 460 kts 334°
2026-04-23 23:31 -23.84729 -74.70074 35771 ft 461 kts 334°
2026-04-23 23:32 -23.78683 -74.72448 35758 ft 461 kts 334°
2026-04-23 23:32 -23.72662 -74.74851 35756 ft 461 kts 333°
2026-04-23 23:33 -23.66647 -74.77279 35762 ft 461 kts 333°
2026-04-23 23:33 -23.60647 -74.79726 35746 ft 461 kts 333°
2026-04-23 23:34 -23.54659 -74.82238 35763 ft 461 kts 333°
2026-04-23 23:34 -23.48693 -74.84811 35795 ft 461 kts 332°
2026-04-23 23:35 -23.42755 -74.87431 35823 ft 460 kts 332°
2026-04-23 23:35 -23.36833 -74.90093 35843 ft 460 kts 332°
2026-04-23 23:36 -23.30972 -74.92768 35832 ft 460 kts 332°
2026-04-23 23:36 -23.25073 -74.95502 35836 ft 461 kts 332°
2026-04-23 23:37 -23.19180 -74.98272 35841 ft 462 kts 331°
2026-04-23 23:37 -23.13293 -75.01078 35833 ft 462 kts 331°
2026-04-23 23:38 -23.07422 -75.03914 35810 ft 462 kts 330°
2026-04-23 23:38 -23.01556 -75.06789 35771 ft 462 kts 330°
2026-04-23 23:39 -22.95732 -75.09773 35717 ft 463 kts 329°
2026-04-23 23:39 -22.89962 -75.12871 35688 ft 463 kts 328°
2026-04-23 23:40 -22.84228 -75.16058 35658 ft 463 kts 328°
2026-04-23 23:40 -22.78537 -75.19306 35623 ft 462 kts 327°
2026-04-23 23:41 -22.72867 -75.22609 35583 ft 462 kts 327°
2026-04-23 23:41 -22.67231 -75.25986 35556 ft 463 kts 327°
2026-04-23 23:42 -22.61619 -75.29445 35546 ft 464 kts 326°
2026-04-23 23:42 -22.56069 -75.32930 35537 ft 464 kts 326°
2026-04-23 23:43 -22.50506 -75.36465 35525 ft 464 kts 326°
2026-04-23 23:43 -22.44953 -75.40020 35523 ft 463 kts 325°
2026-04-23 23:44 -22.39414 -75.43602 35509 ft 464 kts 325°
2026-04-23 23:44 -22.33894 -75.47235 35511 ft 464 kts 325°
2026-04-23 23:45 -22.28397 -75.50894 35504 ft 464 kts 324°
2026-04-23 23:45 -22.22907 -75.54575 35502 ft 464 kts 324°
2026-04-23 23:46 -22.17427 -75.58267 35495 ft 464 kts 324°
2026-04-23 23:46 -22.11953 -75.61973 35473 ft 465 kts 324°
2026-04-23 23:47 -22.06486 -75.65722 35473 ft 466 kts 324°
2026-04-23 23:47 -22.01059 -75.69478 35477 ft 467 kts 324°
2026-04-23 23:48 -21.95604 -75.73271 35476 ft 467 kts 324°
2026-04-23 23:48 -21.90146 -75.77072 35474 ft 467 kts 324°
2026-04-23 23:49 -21.81959 -75.82762 35460 ft 467 kts 324°
2026-04-23 23:49 -21.76474 -75.86546 35454 ft 468 kts 324°
2026-04-23 23:50 -21.70968 -75.90304 35424 ft 469 kts 325°
2026-04-23 23:50 -21.65439 -75.94038 35411 ft 469 kts 325°
2026-04-23 23:51 -21.59891 -75.97743 35393 ft 470 kts 325°
2026-04-23 23:51 -21.54315 -76.01416 35371 ft 470 kts 326°
2026-04-23 23:52 -21.48719 -76.05062 35341 ft 471 kts 326°
2026-04-23 23:52 -21.43107 -76.08693 35306 ft 471 kts 326°
2026-04-23 23:53 -21.37482 -76.12303 35285 ft 471 kts 326°
2026-04-23 23:53 -21.31843 -76.15892 35257 ft 471 kts 326°
2026-04-23 23:54 -21.26202 -76.19457 35219 ft 471 kts 326°
2026-04-23 23:54 -21.20538 -76.23017 35151 ft 472 kts 327°
2026-04-23 23:55 -21.15836 -76.25969 35105 ft 474 kts 327°
2026-04-23 23:55 -21.11236 -76.29023 35370 ft 467 kts 325°